| time (UTC) | temp C | wind direction | speed KPH | gust KPH | rain 1hr cm | rain 24hr cm | rain mn cm | humidity % | barometer mb |
| 20260508163604 | 14 | 235 | 1.6 | 11.3 | 0.00 | 0.13 | 0.03 | 51 | 1014.2 |
| 20260508162705 | 14 | 249 | 3.2 | 11.3 | 0.00 | 0.13 | 0.03 | 51 | 1014.3 |
| 20260508161803 | 14 | 258 | 1.6 | 9.7 | 0.00 | 0.13 | 0.03 | 53 | 1014.3 |
| 20260508160903 | 13 | 260 | 1.6 | 9.7 | 0.00 | 0.13 | 0.03 | 51 | 1014.1 |
| 20260508160003 | 13 | 316 | 3.2 | 11.3 | 0.00 | 0.13 | 0.03 | 52 | 1014.1 |
| 20260508155405 | 13 | 330 | 3.2 | 11.3 | 0.00 | 0.13 | 0.03 | 51 | 1014.2 |
| 20260508154503 | 13 | 309 | 3.2 | 9.7 | 0.00 | 0.13 | 0.03 | 53 | 1014.2 |
| 20260508153603 | 13 | 247 | 3.2 | 11.3 | 0.00 | 0.13 | 0.03 | 52 | 1014.2 |
| 20260508152704 | 13 | 254 | 3.2 | 11.3 | 0.00 | 0.13 | 0.03 | 52 | 1013.9 |
| 20260508151824 | 13 | 288 | 4.8 | 12.9 | 0.00 | 0.13 | 0.03 | 54 | 1014.0 |
| 20260508150925 | 13 | 319 | 4.8 | 12.9 | 0.00 | 0.13 | 0.03 | 54 | 1013.8 |
| 20260508150004 | 13 | 329 | 4.8 | 16.1 | 0.00 | 0.13 | 0.03 | 53 | 1013.9 |
| 20260508145403 | 13 | 302 | 3.2 | 9.7 | 0.00 | 0.13 | 0.03 | 53 | 1013.7 |
| 20260508144504 | 13 | 276 | 1.6 | 9.7 | 0.00 | 0.13 | 0.03 | 54 | 1013.7 |
| 20260508143604 | 14 | 319 | 4.8 | 20.9 | 0.00 | 0.13 | 0.03 | 49 | 1013.8 |
| 20260508142724 | 14 | 206 | 3.2 | 14.5 | 0.00 | 0.13 | 0.03 | 52 | 1013.6 |
| 20260508141824 | 14 | 240 | 3.2 | 11.3 | 0.00 | 0.13 | 0.03 | 53 | 1013.7 |
| 20260508140904 | 13 | 280 | 3.2 | 4.8 | 0.00 | 0.13 | 0.03 | 54 | 1013.7 |
| 20260508140004 | 13 | 285 | 3.2 | 14.5 | 0.00 | 0.13 | 0.03 | 54 | 1013.6 |
| 20260508135403 | 13 | 268 | 1.6 | 6.4 | 0.00 | 0.13 | 0.03 | 54 | 1013.5 |
| 20260508134525 | 14 | 273 | 3.2 | 11.3 | 0.00 | 0.13 | 0.03 | 54 | 1013.5 |
| 20260508133603 | 14 | 235 | 3.2 | 9.7 | 0.00 | 0.13 | 0.03 | 54 | 1013.5 |
| 20260508132703 | 14 | 284 | 3.2 | 9.7 | 0.00 | 0.13 | 0.03 | 55 | 1013.5 |
| 20260508131804 | 15 | 254 | 3.2 | 9.7 | 0.00 | 0.13 | 0.03 | 58 | 1013.4 |
| 20260508130903 | 14 | 224 | 3.2 | 11.3 | 0.00 | 0.13 | 0.03 | 58 | 1013.2 |
| 20260508130003 | 13 | 278 | 3.2 | 11.3 | 0.03 | 0.13 | 0.03 | 56 | 1013.3 |
| 20260508125403 | 13 | 250 | 4.8 | 16.1 | 0.03 | 0.13 | 0.03 | 57 | 1013.3 |
| 20260508124503 | 13 | 213 | 4.8 | 16.1 | 0.03 | 0.13 | 0.03 | 58 | 1013.2 |
| 20260508123604 | 13 | 269 | 3.2 | 6.4 | 0.03 | 0.13 | 0.03 | 57 | 1013.1 |
| 20260508122705 | 13 | 258 | 4.8 | 11.3 | 0.03 | 0.13 | 0.03 | 58 | 1013.2 |
| 20260508121804 | 13 | 221 | 4.8 | 11.3 | 0.03 | 0.13 | 0.03 | 58 | 1013.2 |
| 20260508120903 | 13 | 224 | 3.2 | 9.7 | 0.03 | 0.13 | 0.03 | 58 | 1013.2 |
| 20260508120005 | 12 | 272 | 1.6 | 9.7 | 0.00 | 0.10 | 0.00 | 62 | 1013.2 |
| 20260508115404 | 12 | 253 | 4.8 | 14.5 | 0.00 | 0.10 | 0.00 | 62 | 1013.2 |
| 20260508114506 | 12 | 220 | 8.0 | 14.5 | 0.00 | 0.10 | 0.00 | 59 | 1013.0 |
| 20260508113603 | 12 | 196 | 4.8 | 12.9 | 0.00 | 0.10 | 0.00 | 61 | 1013.0 |
| 20260508112704 | 12 | 198 | 6.4 | 12.9 | 0.00 | 0.10 | 0.00 | 61 | 1012.9 |
| 20260508111803 | 12 | 245 | 4.8 | 11.3 | 0.00 | 0.10 | 0.00 | 59 | 1012.8 |
| 20260508110904 | 12 | 223 | 4.8 | 14.5 | 0.00 | 0.10 | 0.00 | 61 | 1012.9 |
| 20260508110003 | 12 | 202 | 4.8 | 9.7 | 0.00 | 0.10 | 0.00 | 67 | 1012.8 |
| 20260508105404 | 11 | 220 | 4.8 | 11.3 | 0.00 | 0.10 | 0.00 | 70 | 1012.8 |
| 20260508104503 | 11 | 231 | 3.2 | 11.3 | 0.00 | 0.10 | 0.00 | 70 | 1012.8 |
| 20260508103624 | 11 | 253 | 3.2 | 9.7 | 0.00 | 0.10 | 0.00 | 73 | 1012.8 |
| 20260508102705 | 11 | 218 | 3.2 | 9.7 | 0.00 | 0.10 | 0.00 | 76 | 1012.7 |
| 20260508101803 | 11 | 226 | 3.2 | 9.7 | 0.00 | 0.10 | 0.00 | 76 | 1012.6 |
| 20260508100924 | 10 | 239 | 3.2 | 9.7 | 0.00 | 0.10 | 0.00 | 77 | 1012.5 |
| 20260508100004 | 10 | 233 | 3.2 | 6.4 | 0.00 | 0.10 | 0.00 | 80 | 1012.6 |
| 20260508095403 | 10 | 230 | 1.6 | 6.4 | 0.00 | 0.10 | 0.00 | 81 | 1012.6 |
| 20260508094503 | 9 | 232 | 3.2 | 12.9 | 0.00 | 0.10 | 0.00 | 80 | 1012.7 |
| 20260508093625 | 10 | 214 | 6.4 | 16.1 | 0.00 | 0.10 | 0.00 | 77 | 1012.4 |
| 20260508092724 | 10 | 208 | 8.0 | 17.7 | 0.00 | 0.10 | 0.00 | 78 | 1012.1 |
| 20260508091803 | 10 | 215 | 9.7 | 20.9 | 0.00 | 0.10 | 0.00 | 77 | 1012.2 |
| 20260508090925 | 10 | 209 | 11.3 | 20.9 | 0.00 | 0.10 | 0.00 | 77 | 1011.9 |
| 20260508090004 | 10 | 207 | 8.0 | 16.1 | 0.00 | 0.10 | 0.00 | 80 | 1011.9 |
| 20260508085403 | 10 | 214 | 6.4 | 16.1 | 0.00 | 0.10 | 0.00 | 79 | 1011.8 |
| 20260508084505 | 9 | 209 | 4.8 | 12.9 | 0.00 | 0.10 | 0.00 | 80 | 1011.9 |
| 20260508083604 | 9 | 217 | 4.8 | 6.4 | 0.00 | 0.10 | 0.00 | 80 | 1011.7 |
| 20260508082703 | 9 | 221 | 3.2 | 9.7 | 0.00 | 0.10 | 0.00 | 80 | 1011.8 |
| 20260508081803 | 8 | 231 | 4.8 | 9.7 | 0.00 | 0.10 | 0.00 | 81 | 1011.7 |
| 20260508080903 | 8 | 203 | 3.2 | 9.7 | 0.00 | 0.10 | 0.00 | 81 | 1011.5 |
| 20260508080025 | 8 | 266 | 0.0 | 6.4 | 0.00 | 0.10 | 0.00 | 82 | 1011.7 |
| 20260508075403 | 8 | 259 | 1.6 | 9.7 | 0.00 | 0.10 | 0.00 | 83 | 1011.6 |
| 20260508074504 | 8 | 230 | 1.6 | 9.7 | 0.00 | 0.10 | 0.00 | 83 | 1011.3 |
| 20260508073604 | 8 | 287 | 1.6 | 4.8 | 0.00 | 0.10 | 0.00 | 86 | 1011.2 |
| 20260508072704 | 8 | 274 | 0.0 | 4.8 | 0.00 | 0.10 | 0.00 | 86 | 1011.3 |
| 20260508071803 | 8 | 241 | 0.0 | 3.2 | 0.00 | 0.10 | 0.00 | 88 | 1010.9 |
| 20260508070926 | 8 | 260 | 0.0 | 3.2 | 0.00 | 0.10 | 0.00 | 88 | 1011.1 |
| 20260508070004 | 8 | 258 | 1.6 | 4.8 | 0.00 | 0.10 | 0.00 | 89 | 1010.8 |
| 20260508065404 | 8 | 235 | 1.6 | 4.8 | 0.00 | 0.10 | 0.00 | 89 | 1010.8 |
| 20260508064504 | 8 | 233 | 3.2 | 9.7 | 0.00 | 0.10 | 0.00 | 89 | 1010.8 |
| 20260508063606 | 8 | 219 | 3.2 | 9.7 | 0.00 | 0.10 | 0.00 | 89 | 1010.7 |
| 20260508062703 | 8 | 215 | 1.6 | 4.8 | 0.00 | 0.10 | 0.00 | 90 | 1010.5 |
| 20260508061803 | 7 | 240 | 1.6 | 4.8 | 0.00 | 0.10 | 0.00 | 91 | 1010.3 |
| 20260508060903 | 7 | 224 | 3.2 | 4.8 | 0.00 | 0.10 | 0.00 | 91 | 1010.5 |
| 20260508060025 | 7 | 217 | 3.2 | 9.7 | 0.00 | 0.10 | 0.00 | 91 | 1010.3 |
| 20260508055404 | 7 | 229 | 3.2 | 9.7 | 0.00 | 0.10 | 0.00 | 91 | 1010.3 |
| 20260508054504 | 7 | 232 | 3.2 | 6.4 | 0.00 | 0.10 | 0.00 | 91 | 1010.2 |
| 20260508053603 | 7 | 222 | 3.2 | 6.4 | 0.00 | 0.10 | 0.00 | 91 | 1010.0 |
| 20260508052703 | 7 | 222 | 3.2 | 6.4 | 0.00 | 0.10 | 0.00 | 91 | 1009.8 |
| 20260508051804 | 7 | 231 | 1.6 | 4.8 | 0.00 | 0.10 | 0.00 | 92 | 1009.8 |
| 20260508050925 | 7 | 233 | 3.2 | 9.7 | 0.00 | 0.10 | 0.00 | 91 | 1009.7 |
| 20260508050026 | 7 | 227 | 3.2 | 9.7 | 0.00 | 0.10 | 0.00 | 91 | 1009.6 |
| 20260508045403 | 7 | 218 | 1.6 | 6.4 | 0.00 | 0.10 | 0.00 | 91 | 1009.5 |
| 20260508044504 | 7 | 225 | 3.2 | 6.4 | 0.00 | 0.10 | 0.00 | 91 | 1009.8 |
| 20260508043603 | 7 | 220 | 3.2 | 6.4 | 0.00 | 0.10 | 0.00 | 91 | 1009.7 |
| 20260508042704 | 7 | 224 | 1.6 | 3.2 | 0.00 | 0.10 | 0.00 | 90 | 1009.4 |
| 20260508041803 | 7 | 219 | 3.2 | 6.4 | 0.00 | 0.10 | 0.00 | 91 | 1009.2 |
| 20260508040903 | 7 | 218 | 1.6 | 6.4 | 0.00 | 0.10 | 0.00 | 90 | 1009.2 |
| 20260508040006 | 7 | 245 | 1.6 | 4.8 | 0.00 | 0.10 | 0.00 | 90 | 1009.1 |
| 20260508035403 | 7 | 242 | 1.6 | 4.8 | 0.00 | 0.10 | 0.00 | 90 | 1009.1 |
| 20260508034504 | 7 | 253 | 1.6 | 4.8 | 0.00 | 0.10 | 0.00 | 91 | 1009.1 |
| 20260508033603 | 7 | 333 | 0.0 | 1.6 | 0.00 | 0.10 | 0.00 | 91 | 1009.1 |
| 20260508032704 | 7 | 270 | 0.0 | 3.2 | 0.00 | 0.10 | 0.00 | 91 | 1009.0 |
| 20260508031804 | 7 | 228 | 1.6 | 6.4 | 0.00 | 0.10 | 0.00 | 91 | 1009.2 |
| 20260508030904 | 7 | 234 | 3.2 | 9.7 | 0.00 | 0.10 | 0.00 | 91 | 1009.0 |
| 20260508030004 | 7 | 289 | 1.6 | 6.4 | 0.00 | 0.10 | 0.00 | 92 | 1009.1 |
| 20260508025403 | 7 | 323 | 1.6 | 6.4 | 0.00 | 0.10 | 0.00 | 91 | 1008.9 |
| 20260508024504 | 7 | 333 | 1.6 | 4.8 | 0.00 | 0.10 | 0.00 | 92 | 1008.8 |
| 20260508023603 | 7 | 338 | 1.6 | 4.8 | 0.00 | 0.10 | 0.00 | 92 | 1008.6 |
| 20260508022703 | 8 | 253 | 0.0 | 1.6 | 0.00 | 0.10 | 0.00 | 93 | 1008.9 |
| 20260508021824 | 7 | 231 | 1.6 | 4.8 | 0.00 | 0.10 | 0.00 | 93 | 1008.8 |
| 20260508020903 | 7 | 227 | 1.6 | 4.8 | 0.00 | 0.10 | 0.00 | 93 | 1008.9 |
| 20260508020004 | 8 | 212 | 1.6 | 3.2 | 0.00 | 0.10 | 0.00 | 93 | 1008.6 |
| 20260508015403 | 8 | 228 | 1.6 | 6.4 | 0.00 | 0.10 | 0.00 | 93 | 1008.7 |
| 20260508014504 | 8 | 231 | 1.6 | 6.4 | 0.00 | 0.10 | 0.00 | 93 | 1008.6 |
| 20260508013604 | 8 | 244 | 0.0 | 4.8 | 0.00 | 0.10 | 0.00 | 93 | 1008.8 |
| 20260508012704 | 8 | 240 | 1.6 | 6.4 | 0.00 | 0.10 | 0.00 | 93 | 1008.7 |
| 20260508011803 | 8 | 232 | 3.2 | 9.7 | 0.00 | 0.10 | 0.00 | 93 | 1008.5 |
| 20260508010903 | 8 | 220 | 4.8 | 12.9 | 0.00 | 0.10 | 0.00 | 93 | 1008.5 |
| 20260508010003 | 8 | 218 | 4.8 | 11.3 | 0.00 | 0.10 | 0.00 | 94 | 1008.5 |
| 20260508005424 | 8 | 224 | 4.8 | 11.3 | 0.00 | 0.10 | 0.00 | 94 | 1008.4 |
| 20260508004503 | 8 | 215 | 4.8 | 11.3 | 0.00 | 0.10 | 0.00 | 94 | 1008.3 |
| 20260508003605 | 8 | 229 | 4.8 | 9.7 | 0.00 | 0.10 | 0.00 | 94 | 1008.3 |
| 20260508002703 | 8 | 219 | 6.4 | 11.3 | 0.00 | 0.10 | 0.00 | 94 | 1008.3 |
| 20260508001804 | 8 | 220 | 6.4 | 12.9 | 0.00 | 0.10 | 0.00 | 94 | 1008.4 |
| 20260508000904 | 8 | 219 | 4.8 | 11.3 | 0.00 | 0.10 | 0.00 | 94 | 1008.4 |
| 20260508000004 | 8 | 207 | 3.2 | 4.8 | 0.00 | 0.10 | 0.00 | 93 | 1008.4 |
| 20260507235426 | 8 | 202 | 4.8 | 4.8 | 0.00 | 0.10 | 0.00 | 93 | 1008.3 |
| 20260507234505 | 8 | 199 | 4.8 | 6.4 | 0.00 | 0.10 | 0.00 | 93 | 1008.3 |
| 20260507233603 | 8 | 203 | 6.4 | 11.3 | 0.00 | 0.10 | 0.00 | 93 | 1008.3 |
| 20260507232705 | 8 | 229 | 8.0 | 12.9 | 0.03 | 0.10 | 0.00 | 94 | 1008.2 |
| 20260507231803 | 8 | 222 | 8.0 | 16.1 | 0.03 | 0.10 | 0.00 | 93 | 1008.2 |
| 20260507230904 | 8 | 205 | 8.0 | 14.5 | 0.08 | 0.10 | 0.00 | 92 | 1008.4 |
| 20260507230004 | 8 | 200 | 8.0 | 11.3 | 0.10 | 0.10 | 0.00 | 92 | 1008.2 |
| 20260507225425 | 8 | 200 | 6.4 | 11.3 | 0.10 | 0.10 | 0.10 | 92 | 1008.1 |
| 20260507224504 | 8 | 204 | 8.0 | 12.9 | 0.10 | 0.10 | 0.10 | 92 | 1008.0 |
| 20260507223604 | 8 | 204 | 9.7 | 17.7 | 0.10 | 0.10 | 0.10 | 93 | 1008.0 |
| 20260507222704 | 8 | 213 | 14.5 | 24.1 | 0.08 | 0.08 | 0.08 | 92 | 1008.1 |
| 20260507221805 | 8 | 225 | 14.5 | 24.1 | 0.08 | 0.08 | 0.08 | 92 | 1008.1 |
| 20260507220903 | 8 | 218 | 11.3 | 20.9 | 0.03 | 0.03 | 0.03 | 90 | 1008.1 |
| 20260507220025 | 8 | 206 | 11.3 | 20.9 | 0.00 | 0.00 | 0.03 | 90 | 1007.9 |
| 20260507215404 | 8 | 211 | 9.7 | 17.7 | 0.00 | 0.00 | 0.00 | 89 | 1007.9 |
| 20260507214504 | 8 | 213 | 11.3 | 22.5 | 0.00 | 0.00 | 0.00 | 89 | 1007.9 |
| 20260507213603 | 8 | 209 | 8.0 | 16.1 | 0.00 | 0.00 | 0.00 | 89 | 1007.9 |
| 20260507212703 | 8 | 222 | 9.7 | 16.1 | 0.00 | 0.00 | 0.00 | 89 | 1007.8 |
| 20260507211803 | 8 | 217 | 11.3 | 17.7 | 0.00 | 0.00 | 0.00 | 89 | 1007.7 |
| 20260507210903 | 8 | 216 | 11.3 | 17.7 | 0.00 | 0.00 | 0.00 | 90 | 1008.0 |
| 20260507210004 | 8 | 212 | 11.3 | 20.9 | 0.00 | 0.00 | 0.00 | 90 | 1007.9 |
| 20260507205424 | 8 | 211 | 11.3 | 22.5 | 0.00 | 0.00 | 0.00 | 90 | 1007.9 |
| 20260507204504 | 8 | 215 | 11.3 | 22.5 | 0.00 | 0.00 | 0.00 | 90 | 1007.8 |
| 20260507203605 | 8 | 204 | 9.7 | 16.1 | 0.00 | 0.00 | 0.00 | 89 | 1007.7 |
| 20260507202703 | 8 | 207 | 12.9 | 20.9 | 0.00 | 0.00 | 0.00 | 89 | 1007.9 |
| 20260507201805 | 8 | 201 | 12.9 | 27.4 | 0.00 | 0.00 | 0.00 | 88 | 1007.7 |
| 20260507200904 | 8 | 211 | 16.1 | 27.4 | 0.00 | 0.00 | 0.00 | 88 | 1007.7 |
| 20260507200027 | 9 | 217 | 16.1 | 27.4 | 0.00 | 0.00 | 0.00 | 88 | 1007.6 |
| 20260507195403 | 9 | 220 | 14.5 | 24.1 | 0.00 | 0.00 | 0.00 | 87 | 1007.6 |
| 20260507194503 | 9 | 225 | 12.9 | 24.1 | 0.00 | 0.00 | 0.00 | 85 | 1007.4 |
| 20260507193603 | 9 | 213 | 14.5 | 24.1 | 0.00 | 0.00 | 0.00 | 85 | 1007.5 |
| 20260507192726 | 9 | 221 | 16.1 | 25.7 | 0.00 | 0.00 | 0.00 | 84 | 1007.5 |
| 20260507191804 | 9 | 217 | 14.5 | 24.1 | 0.00 | 0.00 | 0.00 | 83 | 1007.4 |
| 20260507190903 | 9 | 222 | 14.5 | 22.5 | 0.00 | 0.00 | 0.00 | 82 | 1007.2 |
| 20260507190005 | 9 | 217 | 12.9 | 24.1 | 0.00 | 0.00 | 0.00 | 82 | 1007.3 |
| 20260507185403 | 9 | 211 | 14.5 | 24.1 | 0.00 | 0.00 | 0.00 | 81 | 1007.3 |
| 20260507184504 | 9 | 213 | 14.5 | 22.5 | 0.00 | 0.00 | 0.00 | 81 | 1007.2 |
| 20260507183604 | 10 | 211 | 14.5 | 27.4 | 0.00 | 0.00 | 0.00 | 80 | 1007.2 |
| 20260507182705 | 10 | 207 | 12.9 | 22.5 | 0.00 | 0.00 | 0.00 | 78 | 1007.5 |
| 20260507181803 | 10 | 207 | 14.5 | 24.1 | 0.00 | 0.00 | 0.00 | 75 | 1007.3 |
| 20260507180925 | 10 | 206 | 12.9 | 20.9 | 0.00 | 0.00 | 0.00 | 73 | 1007.3 |
| 20260507180004 | 11 | 208 | 12.9 | 22.5 | 0.00 | 0.00 | 0.00 | 70 | 1007.2 |
| 20260507175404 | 11 | 203 | 11.3 | 20.9 | 0.00 | 0.00 | 0.00 | 69 | 1007.3 |
| 20260507174504 | 11 | 198 | 9.7 | 14.5 | 0.00 | 0.00 | 0.00 | 71 | 1007.1 |
| 20260507173603 | 11 | 196 | 11.3 | 24.1 | 0.00 | 0.00 | 0.00 | 71 | 1007.5 |
| 20260507172703 | 11 | 211 | 12.9 | 24.1 | 0.00 | 0.00 | 0.00 | 70 | 1007.3 |
| 20260507171804 | 11 | 221 | 12.9 | 22.5 | 0.00 | 0.00 | 0.00 | 70 | 1007.5 |
| 20260507170925 | 11 | 220 | 12.9 | 24.1 | 0.00 | 0.00 | 0.00 | 70 | 1007.4 |
| 20260507170005 | 10 | 221 | 14.5 | 24.1 | 0.00 | 0.00 | 0.00 | 73 | 1007.4 |
| 20260507165403 | 10 | 213 | 14.5 | 24.1 | 0.00 | 0.00 | 0.00 | 71 | 1007.4 |
| 20260507164503 | 11 | 206 | 16.1 | 25.7 | 0.00 | 0.00 | 0.00 | 69 | 1007.4 |